Weather in Kamenskoye

Russia / Kaliningrad Oblast     54°39′25″N   21°33′08″E
temp.,
°C
wind,
m/s
gust,
m/s
humid.,
%
clouds,
%
prec.,
mm/h
press.,
hPa
HPBL,
m
7 may, fri
fri723:00+3sw39885 0.1 1004192
02:00+2sw3109212 0.1 1004230
05:00+1ssw3593100 0.0 1004101
08:00+6sw3575100 0.0 1005369
11:00+10wsw2456100 0.0 10041480
14:00+11wnw3446100 0.3 10041882
17:00+9nw5666100 0.0 1004923
20:00+5nw3880100 0.0 1006417
8 may, sat
sat823:00+3wnw389753 0.0 1008260
02:00+2wnw389731 0.0 1009254
05:000w239757 0.0 101157
08:00+6w467449 0.0 1013545
11:00+8w697171 0.4 10131554
14:00+9wnw697158 1.7 10141586
17:00+9wnw597910 1.3 10161129
20:00+5wnw36934 1.6 1017185
9 may, sun
sun923:00+2sw34960 0.0 101966
02:00+1ssw359475 0.0 101981
05:00+1ssw3794100 0.0 1020133
08:00+7s497954 0.0 1020354
11:00+13s695781 0.0 10181110
14:00+13s51063100 0.0 10171018
17:00+15ssw61166100 0.0 10171031
20:00+13s4137978 0.0 1016416
10 may, mon
mon1023:00+11s5147968 0.0 1018411
02:00+10sse4147897 0.0 1018336
05:00+9sse5148587 0.0 1018306
08:00+13sse61572100 0.0 1018505
11:00+18sse6125841 0.0 1017851
14:00+20sse713575 0.0 10161150
17:00+20sse713635 0.0 10151231
20:00+17sse614741 0.0 1016655
11 may, tue
tue1123:00+15sse6157535 0.0 1016539
02:00+13sse6158298 0.0 1016443
05:00+12sse51387100 0.0 1016378
08:00+15sse614755 0.0 1016552
11:00+19sse712611 0.0 1015833
14:00+22sse712610 0.0 10141143
17:00+21sse713660 0.0 10141101
20:00+18sse614730 0.0 1014750